Year,Month,Day,Hour,Minute,Value (Times are PST for temperature in C)
2018,01,29,00,00,4.40
2018,01,29,00,01,4.40
2018,01,29,00,02,4.40
2018,01,29,00,03,4.40
2018,01,29,00,04,4.40
2018,01,29,00,05,4.30
2018,01,29,00,06,4.30
2018,01,29,00,07,4.30
2018,01,29,00,08,4.30
2018,01,29,00,09,4.30
2018,01,29,00,10,4.30
2018,01,29,00,11,4.20
2018,01,29,00,12,4.20
2018,01,29,00,13,4.20
2018,01,29,00,14,4.20
2018,01,29,00,15,4.20
2018,01,29,00,16,4.20
2018,01,29,00,17,4.20
2018,01,29,00,18,4.20
2018,01,29,00,19,4.20
2018,01,29,00,20,4.20
2018,01,29,00,21,4.20
2018,01,29,00,22,4.20
2018,01,29,00,23,4.20
2018,01,29,00,24,4.20
2018,01,29,00,25,4.20
2018,01,29,00,26,4.20
2018,01,29,00,27,4.20
2018,01,29,00,28,4.20
2018,01,29,00,29,4.30
2018,01,29,00,30,4.30
2018,01,29,00,31,4.30
2018,01,29,00,32,4.30
2018,01,29,00,33,4.30
2018,01,29,00,34,4.30
2018,01,29,00,35,4.30
2018,01,29,00,36,4.30
2018,01,29,00,37,4.30
2018,01,29,00,38,4.20
2018,01,29,00,39,4.20
2018,01,29,00,40,4.20
2018,01,29,00,41,4.20
2018,01,29,00,42,4.30
2018,01,29,00,43,4.30
2018,01,29,00,44,4.30
2018,01,29,00,45,4.30
2018,01,29,00,46,4.40
2018,01,29,00,47,4.40
2018,01,29,00,48,4.40
2018,01,29,00,49,4.40
2018,01,29,00,50,4.40
2018,01,29,00,51,4.40
2018,01,29,00,52,4.40
2018,01,29,00,53,4.40
2018,01,29,00,54,4.50
2018,01,29,00,55,4.50
2018,01,29,00,56,4.50
2018,01,29,00,57,4.60
2018,01,29,00,58,4.60
2018,01,29,00,59,4.60
2018,01,29,01,00,4.70
2018,01,29,01,01,4.70
2018,01,29,01,02,4.70
2018,01,29,01,03,4.70
2018,01,29,01,04,4.70
2018,01,29,01,05,4.70
2018,01,29,01,06,4.70
2018,01,29,01,07,4.70
2018,01,29,01,08,4.70
2018,01,29,01,09,4.70
2018,01,29,01,10,4.70
2018,01,29,01,11,4.70
2018,01,29,01,12,4.70
2018,01,29,01,13,4.70
2018,01,29,01,14,4.70
2018,01,29,01,15,4.70
2018,01,29,01,16,4.70
2018,01,29,01,17,4.70
2018,01,29,01,18,4.70
2018,01,29,01,19,4.80
2018,01,29,01,20,4.80
2018,01,29,01,21,4.80
2018,01,29,01,22,4.80
2018,01,29,01,23,4.80
2018,01,29,01,24,4.70
2018,01,29,01,25,4.70
2018,01,29,01,26,4.70
2018,01,29,01,27,4.70
2018,01,29,01,28,4.70
2018,01,29,01,29,4.70
2018,01,29,01,30,4.70
2018,01,29,01,31,4.70
2018,01,29,01,32,4.70
2018,01,29,01,33,4.80
2018,01,29,01,34,4.80
2018,01,29,01,35,4.80
2018,01,29,01,36,4.80
2018,01,29,01,37,4.80
2018,01,29,01,38,4.80
2018,01,29,01,39,4.90
2018,01,29,01,40,4.90
2018,01,29,01,41,4.90
2018,01,29,01,42,4.90
2018,01,29,01,43,4.90
2018,01,29,01,44,4.90
2018,01,29,01,45,4.90
2018,01,29,01,46,4.90
2018,01,29,01,47,4.90
2018,01,29,01,48,5.00
2018,01,29,01,49,5.00
2018,01,29,01,50,5.00
2018,01,29,01,51,5.00
2018,01,29,01,52,5.00
2018,01,29,01,53,5.00
2018,01,29,01,54,5.00
2018,01,29,01,55,5.10
2018,01,29,01,56,5.10
2018,01,29,01,57,5.10
2018,01,29,01,58,5.10
2018,01,29,01,59,5.20
2018,01,29,02,00,5.20
2018,01,29,02,01,5.10
2018,01,29,02,02,5.20
2018,01,29,02,03,5.10
2018,01,29,02,04,5.10
2018,01,29,02,05,5.10
2018,01,29,02,06,5.10
2018,01,29,02,07,5.10
2018,01,29,02,08,5.10
2018,01,29,02,09,5.10
2018,01,29,02,10,5.10
2018,01,29,02,11,5.10
2018,01,29,02,12,5.10
2018,01,29,02,13,5.10
2018,01,29,02,14,5.20
2018,01,29,02,15,5.20
2018,01,29,02,16,5.20
2018,01,29,02,17,5.20
2018,01,29,02,18,5.20
2018,01,29,02,19,5.20
2018,01,29,02,20,5.30
2018,01,29,02,21,5.30
2018,01,29,02,22,5.30
2018,01,29,02,23,5.40
2018,01,29,02,24,5.40
2018,01,29,02,25,5.40
2018,01,29,02,26,5.50
2018,01,29,02,27,5.50
2018,01,29,02,28,5.50
2018,01,29,02,29,5.50
2018,01,29,02,30,5.40
2018,01,29,02,31,5.40
2018,01,29,02,32,5.40
2018,01,29,02,33,5.40
2018,01,29,02,34,5.40
2018,01,29,02,35,5.30
2018,01,29,02,36,5.30
2018,01,29,02,37,5.30
2018,01,29,02,38,5.20
2018,01,29,02,39,5.20
2018,01,29,02,40,5.20
2018,01,29,02,41,5.10
2018,01,29,02,42,5.10
2018,01,29,02,43,5.10
2018,01,29,02,44,5.00
2018,01,29,02,45,5.00
2018,01,29,02,46,5.00
2018,01,29,02,47,5.00
2018,01,29,02,48,5.00
2018,01,29,02,49,5.00
2018,01,29,02,50,4.90
2018,01,29,02,51,4.90
2018,01,29,02,52,4.90
2018,01,29,02,53,4.90
2018,01,29,02,54,4.90
2018,01,29,02,55,4.90
2018,01,29,02,56,4.90
2018,01,29,02,57,4.90
2018,01,29,02,58,4.90
2018,01,29,02,59,5.00
2018,01,29,03,00,5.00
2018,01,29,03,01,5.00
2018,01,29,03,02,5.00
2018,01,29,03,03,5.10
2018,01,29,03,04,5.10
2018,01,29,03,05,5.10
2018,01,29,03,06,5.10
2018,01,29,03,07,5.10
2018,01,29,03,08,5.10
2018,01,29,03,09,5.10
2018,01,29,03,10,5.10
2018,01,29,03,11,5.10
2018,01,29,03,12,5.10
2018,01,29,03,13,5.10
2018,01,29,03,14,5.10
2018,01,29,03,15,5.10
2018,01,29,03,16,5.10
2018,01,29,03,17,5.10
2018,01,29,03,18,5.10
2018,01,29,03,19,5.20
2018,01,29,03,20,5.20
2018,01,29,03,21,5.20
2018,01,29,03,22,5.30
2018,01,29,03,23,5.30
2018,01,29,03,24,5.30
2018,01,29,03,25,5.30
2018,01,29,03,26,5.30
2018,01,29,03,27,5.30
2018,01,29,03,28,5.30
2018,01,29,03,29,5.40
2018,01,29,03,30,5.40
2018,01,29,03,31,5.40
2018,01,29,03,32,5.50
2018,01,29,03,33,5.50
2018,01,29,03,34,5.50
2018,01,29,03,35,5.60
2018,01,29,03,36,5.60
2018,01,29,03,37,5.60
2018,01,29,03,38,5.70
2018,01,29,03,39,5.70
2018,01,29,03,40,5.70
2018,01,29,03,41,5.70
2018,01,29,03,42,5.80
2018,01,29,03,43,5.80
2018,01,29,03,44,5.80
2018,01,29,03,45,5.80
2018,01,29,03,46,5.80
2018,01,29,03,47,5.80
2018,01,29,03,48,5.80
2018,01,29,03,49,5.70
2018,01,29,03,50,5.70
2018,01,29,03,51,5.60
2018,01,29,03,52,5.60
2018,01,29,03,53,5.60
2018,01,29,03,54,5.50
2018,01,29,03,55,5.50
2018,01,29,03,56,5.50
2018,01,29,03,57,5.40
2018,01,29,03,58,5.40
2018,01,29,03,59,5.40
2018,01,29,04,00,5.40
2018,01,29,04,01,5.40
2018,01,29,04,02,5.40
2018,01,29,04,03,5.40
2018,01,29,04,04,5.40
2018,01,29,04,05,5.40
2018,01,29,04,06,5.40
2018,01,29,04,07,5.40
2018,01,29,04,08,5.40
2018,01,29,04,09,5.40
2018,01,29,04,10,5.40
2018,01,29,04,11,5.40
2018,01,29,04,12,5.40
2018,01,29,04,13,5.40
2018,01,29,04,14,5.40
2018,01,29,04,15,5.40
2018,01,29,04,16,5.40
2018,01,29,04,17,5.40
2018,01,29,04,18,5.40
2018,01,29,04,19,5.40
2018,01,29,04,20,5.40
2018,01,29,04,21,5.50
2018,01,29,04,22,5.50
2018,01,29,04,23,5.50
2018,01,29,04,24,5.50
2018,01,29,04,25,5.50
2018,01,29,04,26,5.50
2018,01,29,04,27,5.50
2018,01,29,04,28,5.50
2018,01,29,04,29,5.50
2018,01,29,04,30,5.60
2018,01,29,04,31,5.60
2018,01,29,04,32,5.60
2018,01,29,04,33,5.60
2018,01,29,04,34,5.60
2018,01,29,04,35,5.60
2018,01,29,04,36,5.60
2018,01,29,04,37,5.60
2018,01,29,04,38,5.60
2018,01,29,04,39,5.60
2018,01,29,04,40,5.60
2018,01,29,04,41,5.60
2018,01,29,04,42,5.60
2018,01,29,04,43,5.60
2018,01,29,04,44,5.60
2018,01,29,04,45,5.60
2018,01,29,04,46,5.70
2018,01,29,04,47,5.70
2018,01,29,04,48,5.70
2018,01,29,04,49,5.70
2018,01,29,04,50,5.70
2018,01,29,04,51,5.70
2018,01,29,04,52,5.70
2018,01,29,04,53,5.80
2018,01,29,04,54,5.80
2018,01,29,04,55,5.80
2018,01,29,04,56,5.80
2018,01,29,04,57,5.80
2018,01,29,04,58,5.80
2018,01,29,04,59,5.80
2018,01,29,05,00,5.80
2018,01,29,05,01,5.80
2018,01,29,05,02,5.80
2018,01,29,05,03,5.90
2018,01,29,05,04,5.90
2018,01,29,05,05,5.90
2018,01,29,05,06,5.90
2018,01,29,05,07,5.90
2018,01,29,05,08,6.00
2018,01,29,05,09,6.00
2018,01,29,05,10,6.00
2018,01,29,05,11,6.10
2018,01,29,05,12,6.20
2018,01,29,05,13,6.20
2018,01,29,05,14,6.20
2018,01,29,05,15,6.20
2018,01,29,05,16,6.10
2018,01,29,05,17,6.10
2018,01,29,05,18,6.10
2018,01,29,05,19,6.10
2018,01,29,05,20,6.10
2018,01,29,05,21,6.00
2018,01,29,05,22,6.00
2018,01,29,05,23,6.00
2018,01,29,05,24,6.00
2018,01,29,05,25,6.00
2018,01,29,05,26,6.00
2018,01,29,05,27,6.00
2018,01,29,05,28,6.00
2018,01,29,05,29,6.00
2018,01,29,05,30,6.00
2018,01,29,05,31,6.00
2018,01,29,05,32,6.00
2018,01,29,05,33,6.00
2018,01,29,05,34,6.10
2018,01,29,05,35,6.10
2018,01,29,05,36,6.10
2018,01,29,05,37,6.10
2018,01,29,05,38,6.20
2018,01,29,05,39,6.20
2018,01,29,05,40,6.20
2018,01,29,05,41,6.20
2018,01,29,05,42,6.20
2018,01,29,05,43,6.20
2018,01,29,05,44,6.20
2018,01,29,05,45,6.20
2018,01,29,05,46,6.30
2018,01,29,05,47,6.40
2018,01,29,05,48,6.40
2018,01,29,05,49,6.40
2018,01,29,05,50,6.40
2018,01,29,05,51,6.40
2018,01,29,05,52,6.30
2018,01,29,05,53,6.30
2018,01,29,05,54,6.30
2018,01,29,05,55,6.30
2018,01,29,05,56,6.30
2018,01,29,05,57,6.30
2018,01,29,05,58,6.30
2018,01,29,05,59,6.40
2018,01,29,06,00,6.40
2018,01,29,06,01,6.40
2018,01,29,06,02,6.50
2018,01,29,06,03,6.50
2018,01,29,06,04,6.60
2018,01,29,06,05,6.60
2018,01,29,06,06,6.70
2018,01,29,06,07,6.70
2018,01,29,06,08,6.80
2018,01,29,06,09,6.80
2018,01,29,06,10,6.80
2018,01,29,06,11,6.80
2018,01,29,06,12,7.00
2018,01,29,06,13,7.00
2018,01,29,06,14,7.00
2018,01,29,06,15,7.00
2018,01,29,06,16,7.00
2018,01,29,06,17,7.20
2018,01,29,06,18,7.40
2018,01,29,06,19,7.50
2018,01,29,06,20,7.60
2018,01,29,06,21,7.60
2018,01,29,06,22,7.70
2018,01,29,06,23,7.80
2018,01,29,06,24,7.90
2018,01,29,06,25,7.90
2018,01,29,06,26,8.00
2018,01,29,06,27,8.50
2018,01,29,06,28,8.70
2018,01,29,06,29,8.90
2018,01,29,06,30,9.00
2018,01,29,06,31,9.10
2018,01,29,06,32,9.20
2018,01,29,06,33,9.20
2018,01,29,06,34,9.30
2018,01,29,06,35,9.40
2018,01,29,06,36,9.50
2018,01,29,06,37,9.50
2018,01,29,06,38,9.60
2018,01,29,06,39,9.60
2018,01,29,06,40,9.60
2018,01,29,06,41,9.60
2018,01,29,06,42,9.60
2018,01,29,06,43,9.60
2018,01,29,06,44,9.70
2018,01,29,06,45,9.70
2018,01,29,06,46,9.80
2018,01,29,06,47,9.80
2018,01,29,06,48,9.90
2018,01,29,06,49,9.90
2018,01,29,06,50,9.90
2018,01,29,06,51,9.90
2018,01,29,06,52,9.90
2018,01,29,06,53,9.90
2018,01,29,06,54,9.90
2018,01,29,06,55,9.90
2018,01,29,06,56,9.90
2018,01,29,06,57,9.90
2018,01,29,06,58,10.00
2018,01,29,06,59,10.10
2018,01,29,07,00,10.20
2018,01,29,07,01,10.20
2018,01,29,07,02,10.30
2018,01,29,07,03,10.40
2018,01,29,07,04,10.40
2018,01,29,07,05,10.40
2018,01,29,07,06,10.50
2018,01,29,07,07,10.50
2018,01,29,07,08,10.50
2018,01,29,07,09,10.50
2018,01,29,07,10,10.60
2018,01,29,07,11,10.60
2018,01,29,07,12,10.60
2018,01,29,07,13,10.60
2018,01,29,07,14,10.60
2018,01,29,07,15,10.60
2018,01,29,07,16,10.60
2018,01,29,07,17,10.60
2018,01,29,07,18,10.60
2018,01,29,07,19,10.60
2018,01,29,07,20,10.60
2018,01,29,07,21,10.70
2018,01,29,07,22,10.70
2018,01,29,07,23,10.70
2018,01,29,07,24,10.70
2018,01,29,07,25,10.70
2018,01,29,07,26,10.70
2018,01,29,07,27,10.60
2018,01,29,07,28,10.60
2018,01,29,07,29,10.60
2018,01,29,07,30,10.60
2018,01,29,07,31,10.60
2018,01,29,07,32,10.60
2018,01,29,07,33,10.60
2018,01,29,07,34,10.60
2018,01,29,07,35,10.70
2018,01,29,07,36,10.70
2018,01,29,07,37,10.80
2018,01,29,07,38,10.80
2018,01,29,07,39,10.80
2018,01,29,07,40,10.80
2018,01,29,07,41,10.80
2018,01,29,07,42,10.80
2018,01,29,07,43,10.90
2018,01,29,07,44,10.90
2018,01,29,07,45,10.90
2018,01,29,07,46,10.90
2018,01,29,07,47,10.90
2018,01,29,07,48,10.90
2018,01,29,07,49,10.90
2018,01,29,07,50,10.90
2018,01,29,07,51,10.90
2018,01,29,07,52,10.90
2018,01,29,07,53,10.90
2018,01,29,07,54,10.90
2018,01,29,07,55,10.90
2018,01,29,07,56,10.90
2018,01,29,07,57,10.90
2018,01,29,07,58,10.90
2018,01,29,07,59,10.90
2018,01,29,08,00,10.90
2018,01,29,08,01,10.90
2018,01,29,08,02,10.90
2018,01,29,08,03,10.90
2018,01,29,08,04,10.90
2018,01,29,08,05,10.90
2018,01,29,08,06,10.90
2018,01,29,08,07,10.90
2018,01,29,08,08,10.90
2018,01,29,08,09,10.90
2018,01,29,08,10,10.90
2018,01,29,08,11,10.80
2018,01,29,08,12,10.80
2018,01,29,08,13,10.80
2018,01,29,08,14,10.80
2018,01,29,08,15,10.80
2018,01,29,08,16,10.80
2018,01,29,08,17,10.80
2018,01,29,08,18,10.80
2018,01,29,08,19,10.80
2018,01,29,08,20,10.80
2018,01,29,08,21,10.80
2018,01,29,08,22,10.80
2018,01,29,08,23,10.80
2018,01,29,08,24,10.80
2018,01,29,08,25,10.80
2018,01,29,08,26,10.80
2018,01,29,08,27,10.80
2018,01,29,08,28,10.80
2018,01,29,08,29,10.80
2018,01,29,08,30,10.80
2018,01,29,08,31,10.80
2018,01,29,08,32,10.80
2018,01,29,08,33,10.80
2018,01,29,08,34,10.80
2018,01,29,08,35,10.80
2018,01,29,08,36,10.80
2018,01,29,08,37,10.80
2018,01,29,08,38,10.80
2018,01,29,08,39,10.80
2018,01,29,08,40,10.80
2018,01,29,08,41,10.80
2018,01,29,08,42,10.80
2018,01,29,08,43,10.80
2018,01,29,08,44,10.80
2018,01,29,08,45,10.80
2018,01,29,08,46,10.80
2018,01,29,08,47,10.80
2018,01,29,08,48,10.80
2018,01,29,08,49,10.80
2018,01,29,08,50,10.80
2018,01,29,08,51,10.80
2018,01,29,08,52,10.80
2018,01,29,08,53,10.80
2018,01,29,08,54,10.80
2018,01,29,08,55,10.80
2018,01,29,08,56,10.80
2018,01,29,08,57,10.90
2018,01,29,08,58,10.90
2018,01,29,08,59,10.90
2018,01,29,09,00,10.90
2018,01,29,09,01,10.90
2018,01,29,09,02,10.90
2018,01,29,09,03,10.90
2018,01,29,09,04,10.90
2018,01,29,09,05,10.90
2018,01,29,09,06,10.90
2018,01,29,09,07,10.90
2018,01,29,09,08,10.90
2018,01,29,09,09,10.90
2018,01,29,09,10,10.80
2018,01,29,09,11,10.80
2018,01,29,09,12,10.80
2018,01,29,09,13,10.80
2018,01,29,09,14,10.80
2018,01,29,09,15,10.80
2018,01,29,09,16,10.80
2018,01,29,09,17,10.80
2018,01,29,09,18,10.80
2018,01,29,09,19,10.80
2018,01,29,09,20,10.80
2018,01,29,09,21,10.80
2018,01,29,09,22,10.80
2018,01,29,09,23,10.80
2018,01,29,09,24,10.80
2018,01,29,09,25,10.80
2018,01,29,09,26,10.80
2018,01,29,09,27,10.80
2018,01,29,09,28,10.80
2018,01,29,09,29,10.80
2018,01,29,09,30,10.80
2018,01,29,09,31,10.80
2018,01,29,09,32,10.80
2018,01,29,09,33,10.80
2018,01,29,09,34,10.90
2018,01,29,09,35,10.90
2018,01,29,09,36,10.90
2018,01,29,09,37,10.90
2018,01,29,09,38,10.90
2018,01,29,09,39,10.90
2018,01,29,09,40,10.90
2018,01,29,09,41,10.90
2018,01,29,09,42,10.90
2018,01,29,09,43,10.90
2018,01,29,09,44,10.90
2018,01,29,09,45,10.90
2018,01,29,09,46,10.90
2018,01,29,09,47,10.80
2018,01,29,09,48,10.80
2018,01,29,09,49,10.80
2018,01,29,09,50,10.80
2018,01,29,09,51,10.80
2018,01,29,09,52,10.80
2018,01,29,09,53,10.80
2018,01,29,09,54,10.80
2018,01,29,09,55,10.80
2018,01,29,09,56,10.70
2018,01,29,09,57,10.70
2018,01,29,09,58,10.70
2018,01,29,09,59,10.70
2018,01,29,10,00,10.70
2018,01,29,10,01,10.70
2018,01,29,10,02,10.70
2018,01,29,10,03,10.80
2018,01,29,10,04,10.80
2018,01,29,10,05,10.80
2018,01,29,10,06,10.80
2018,01,29,10,07,10.80
2018,01,29,10,08,10.80
2018,01,29,10,09,10.80
2018,01,29,10,10,10.80
2018,01,29,10,11,10.80
2018,01,29,10,12,10.80
2018,01,29,10,13,10.80
2018,01,29,10,14,10.80
2018,01,29,10,15,10.90
2018,01,29,10,16,10.90
2018,01,29,10,17,10.90
2018,01,29,10,18,10.90
2018,01,29,10,19,10.90
2018,01,29,10,20,10.90
2018,01,29,10,21,11.00
2018,01,29,10,22,11.10
2018,01,29,10,23,11.10
2018,01,29,10,24,11.10
2018,01,29,10,25,11.10
2018,01,29,10,26,11.10
2018,01,29,10,27,11.10
2018,01,29,10,28,11.10
2018,01,29,10,29,11.10
2018,01,29,10,30,11.10
2018,01,29,10,31,11.10
2018,01,29,10,32,11.10
2018,01,29,10,33,11.10
2018,01,29,10,34,11.10
2018,01,29,10,35,11.10
2018,01,29,10,36,11.10
2018,01,29,10,37,11.10
2018,01,29,10,38,11.10
2018,01,29,10,39,11.10
2018,01,29,10,40,11.10
2018,01,29,10,41,11.10
2018,01,29,10,42,11.10
2018,01,29,10,43,11.10
2018,01,29,10,44,11.10
2018,01,29,10,45,11.10
2018,01,29,10,46,11.10
2018,01,29,10,47,11.10
2018,01,29,10,48,11.10
2018,01,29,10,49,11.10
2018,01,29,10,50,11.10
2018,01,29,10,51,11.10
2018,01,29,10,52,11.10
2018,01,29,10,53,11.10
2018,01,29,10,54,11.10
2018,01,29,10,55,11.00
2018,01,29,10,56,11.00
2018,01,29,10,57,11.00
2018,01,29,10,58,11.00
2018,01,29,10,59,11.00
2018,01,29,11,00,11.00
2018,01,29,11,01,11.00
2018,01,29,11,02,10.90
2018,01,29,11,03,10.90
2018,01,29,11,04,10.90
2018,01,29,11,05,10.90
2018,01,29,11,06,10.90
2018,01,29,11,07,10.90
2018,01,29,11,08,11.00
2018,01,29,11,09,10.90
2018,01,29,11,10,10.90
2018,01,29,11,11,10.90
2018,01,29,11,12,10.90
2018,01,29,11,13,10.90
2018,01,29,11,14,10.90
2018,01,29,11,15,10.80
2018,01,29,11,16,10.60
2018,01,29,11,17,10.60
2018,01,29,11,18,10.50
2018,01,29,11,19,10.50
2018,01,29,11,20,10.40
2018,01,29,11,21,10.40
2018,01,29,11,22,10.40
2018,01,29,11,23,10.30
2018,01,29,11,24,10.30
2018,01,29,11,25,10.20
2018,01,29,11,26,10.20
2018,01,29,11,27,10.10
2018,01,29,11,28,10.10
2018,01,29,11,29,10.00
2018,01,29,11,30,9.90
2018,01,29,11,31,9.90
2018,01,29,11,32,9.90
2018,01,29,11,33,9.80
2018,01,29,11,34,9.80
2018,01,29,11,35,9.80
2018,01,29,11,36,9.80
2018,01,29,11,37,9.80
2018,01,29,11,38,9.70
2018,01,29,11,39,9.70
2018,01,29,11,40,9.70
2018,01,29,11,41,9.70
2018,01,29,11,42,9.70
2018,01,29,11,43,9.70
2018,01,29,11,44,9.70
2018,01,29,11,45,9.70
2018,01,29,11,46,9.70
2018,01,29,11,47,9.80
2018,01,29,11,48,9.80
2018,01,29,11,49,9.70
2018,01,29,11,50,9.70
2018,01,29,11,51,9.70
2018,01,29,11,52,9.70
2018,01,29,11,53,9.60
2018,01,29,11,54,9.60
2018,01,29,11,55,9.60
2018,01,29,11,56,9.50
2018,01,29,11,57,9.50
2018,01,29,11,58,9.50
2018,01,29,11,59,9.50
2018,01,29,12,00,9.40
2018,01,29,12,01,9.40
2018,01,29,12,02,9.40
2018,01,29,12,03,9.30
2018,01,29,12,04,9.30
2018,01,29,12,05,9.30
2018,01,29,12,06,9.40
2018,01,29,12,07,9.40
2018,01,29,12,08,9.40
2018,01,29,12,09,9.40
2018,01,29,12,10,9.40
2018,01,29,12,11,9.30
2018,01,29,12,12,9.30
2018,01,29,12,13,9.30
2018,01,29,12,14,9.30
2018,01,29,12,15,9.30
2018,01,29,12,16,9.30
2018,01,29,12,17,9.20
2018,01,29,12,18,9.20
2018,01,29,12,19,9.20
2018,01,29,12,20,9.20
2018,01,29,12,21,9.10
2018,01,29,12,22,9.10
2018,01,29,12,23,9.10
2018,01,29,12,24,9.10
2018,01,29,12,25,9.10
2018,01,29,12,26,9.10
2018,01,29,12,27,9.00
2018,01,29,12,28,9.00
2018,01,29,12,29,9.00
2018,01,29,12,30,9.00
2018,01,29,12,31,8.90
2018,01,29,12,32,8.90
2018,01,29,12,33,8.80
2018,01,29,12,34,8.80
2018,01,29,12,35,8.70
2018,01,29,12,36,8.70
2018,01,29,12,37,8.60
2018,01,29,12,38,8.60
2018,01,29,12,39,8.50
2018,01,29,12,40,8.40
2018,01,29,12,41,8.40
2018,01,29,12,42,8.30
2018,01,29,12,43,8.30
2018,01,29,12,44,8.30
2018,01,29,12,45,8.20
2018,01,29,12,46,8.20
2018,01,29,12,47,8.20
2018,01,29,12,48,8.20
2018,01,29,12,49,8.20
2018,01,29,12,50,8.20
2018,01,29,12,51,8.20
2018,01,29,12,52,8.20
2018,01,29,12,53,8.20
2018,01,29,12,54,8.20
2018,01,29,12,55,8.20
2018,01,29,12,56,8.20
2018,01,29,12,57,8.20
2018,01,29,12,58,8.20
2018,01,29,12,59,8.20
2018,01,29,13,00,8.20
2018,01,29,13,01,8.20
2018,01,29,13,02,8.20
2018,01,29,13,03,8.10
2018,01,29,13,04,8.10
2018,01,29,13,05,8.10
2018,01,29,13,06,8.10
2018,01,29,13,07,8.10
2018,01,29,13,08,8.00
2018,01,29,13,09,8.00
2018,01,29,13,10,8.00
2018,01,29,13,11,8.00
2018,01,29,13,12,8.00
2018,01,29,13,13,7.90
2018,01,29,13,14,7.90
2018,01,29,13,15,7.90
2018,01,29,13,16,7.90
2018,01,29,13,17,7.80
2018,01,29,13,18,7.80
2018,01,29,13,19,7.80
2018,01,29,13,20,7.80
2018,01,29,13,21,7.80
2018,01,29,13,22,7.80
2018,01,29,13,23,7.80
2018,01,29,13,24,7.80
2018,01,29,13,25,7.80
2018,01,29,13,26,7.80
2018,01,29,13,27,7.90
2018,01,29,13,28,7.90
2018,01,29,13,29,7.90
2018,01,29,13,30,7.90
2018,01,29,13,31,7.90
2018,01,29,13,32,8.00
2018,01,29,13,33,8.00
2018,01,29,13,34,8.10
2018,01,29,13,35,8.10
2018,01,29,13,36,8.10
2018,01,29,13,37,8.10
2018,01,29,13,38,8.10
2018,01,29,13,39,8.20
2018,01,29,13,40,8.20
2018,01,29,13,41,8.20
2018,01,29,13,42,8.20
2018,01,29,13,43,8.20
2018,01,29,13,44,8.20
2018,01,29,13,45,8.20
2018,01,29,13,46,8.20
2018,01,29,13,47,8.20
2018,01,29,13,48,8.20
2018,01,29,13,49,8.20
2018,01,29,13,50,8.20
2018,01,29,13,51,8.20
2018,01,29,13,52,8.20
2018,01,29,13,53,8.20
2018,01,29,13,54,8.30
2018,01,29,13,55,8.30
2018,01,29,13,56,8.30
2018,01,29,13,57,8.30
2018,01,29,13,58,8.30
2018,01,29,13,59,8.40
2018,01,29,14,00,8.40
2018,01,29,14,01,8.40
2018,01,29,14,02,8.40
2018,01,29,14,03,8.50
2018,01,29,14,04,8.50
2018,01,29,14,05,8.50
2018,01,29,14,06,8.50
2018,01,29,14,07,8.50
2018,01,29,14,08,8.50
2018,01,29,14,09,8.50
2018,01,29,14,10,8.40
2018,01,29,14,11,8.50
2018,01,29,14,12,8.50
2018,01,29,14,13,8.50
2018,01,29,14,14,8.50
2018,01,29,14,15,8.50
2018,01,29,14,16,8.50
2018,01,29,14,17,8.50
2018,01,29,14,18,8.50
2018,01,29,14,19,8.50
2018,01,29,14,20,8.50
2018,01,29,14,21,8.50
2018,01,29,14,22,8.50
2018,01,29,14,23,8.50
2018,01,29,14,24,8.50
2018,01,29,14,25,8.50
2018,01,29,14,26,8.50
2018,01,29,14,27,8.50
2018,01,29,14,28,8.50
2018,01,29,14,29,8.60
2018,01,29,14,30,8.60
2018,01,29,14,31,8.60
2018,01,29,14,32,8.60
2018,01,29,14,33,8.70
2018,01,29,14,34,8.70
2018,01,29,14,35,8.70
2018,01,29,14,36,8.70
2018,01,29,14,37,8.70
2018,01,29,14,38,8.70
2018,01,29,14,39,8.70
2018,01,29,14,40,8.70
2018,01,29,14,41,8.70
2018,01,29,14,42,8.70
2018,01,29,14,43,8.70
2018,01,29,14,44,8.70
2018,01,29,14,45,8.70
2018,01,29,14,46,8.70
2018,01,29,14,47,8.70
2018,01,29,14,48,8.70
2018,01,29,14,49,8.70
2018,01,29,14,50,8.70
2018,01,29,14,51,8.60
2018,01,29,14,52,8.60
2018,01,29,14,53,8.60
2018,01,29,14,54,8.50
2018,01,29,14,55,8.50
2018,01,29,14,56,8.50
2018,01,29,14,57,8.50
2018,01,29,14,58,8.50
2018,01,29,14,59,8.50
2018,01,29,15,00,8.50
2018,01,29,15,01,8.60
2018,01,29,15,02,8.60
2018,01,29,15,03,8.60
2018,01,29,15,04,8.60
2018,01,29,15,05,8.60
2018,01,29,15,06,8.60
2018,01,29,15,07,8.60
2018,01,29,15,08,8.60
2018,01,29,15,09,8.60
2018,01,29,15,10,8.60
2018,01,29,15,11,8.50
2018,01,29,15,12,8.50
2018,01,29,15,13,8.40
2018,01,29,15,14,8.40
2018,01,29,15,15,8.40
2018,01,29,15,16,8.40
2018,01,29,15,17,8.40
2018,01,29,15,18,8.40
2018,01,29,15,19,8.30
2018,01,29,15,20,8.30
2018,01,29,15,21,8.30
2018,01,29,15,22,8.30
2018,01,29,15,23,8.30
2018,01,29,15,24,8.30
2018,01,29,15,25,8.20
2018,01,29,15,26,8.20
2018,01,29,15,27,8.20
2018,01,29,15,28,8.20
2018,01,29,15,29,8.20
2018,01,29,15,30,8.20
2018,01,29,15,31,8.10
2018,01,29,15,32,8.10
2018,01,29,15,33,8.10
2018,01,29,15,34,8.10
2018,01,29,15,35,8.10
2018,01,29,15,36,8.00
2018,01,29,15,37,8.00
2018,01,29,15,38,8.00
2018,01,29,15,39,8.00
2018,01,29,15,40,8.00
2018,01,29,15,41,7.90
2018,01,29,15,42,7.90
2018,01,29,15,43,7.90
2018,01,29,15,44,7.90
2018,01,29,15,45,7.90
2018,01,29,15,46,7.90
2018,01,29,15,47,7.90
2018,01,29,15,48,7.90
2018,01,29,15,49,7.90
2018,01,29,15,50,7.90
2018,01,29,15,51,7.90
2018,01,29,15,52,7.90
2018,01,29,15,53,7.90
2018,01,29,15,54,7.90
2018,01,29,15,55,7.90
2018,01,29,15,56,7.90
2018,01,29,15,57,7.90
2018,01,29,15,58,7.90
2018,01,29,15,59,7.90
2018,01,29,16,00,7.90
2018,01,29,16,01,7.90
2018,01,29,16,02,7.90
2018,01,29,16,03,7.90
2018,01,29,16,04,7.90
2018,01,29,16,05,7.80
2018,01,29,16,06,7.80
2018,01,29,16,07,7.80
2018,01,29,16,08,7.80
2018,01,29,16,09,7.80
2018,01,29,16,10,7.80
2018,01,29,16,11,7.80
2018,01,29,16,12,7.70
2018,01,29,16,13,7.60
2018,01,29,16,14,7.60
2018,01,29,16,15,7.50
2018,01,29,16,16,7.40
2018,01,29,16,17,7.30
2018,01,29,16,18,7.30
2018,01,29,16,19,7.20
2018,01,29,16,20,7.20
2018,01,29,16,21,7.10
2018,01,29,16,22,7.10
2018,01,29,16,23,7.00
2018,01,29,16,24,7.00
2018,01,29,16,25,6.90
2018,01,29,16,26,6.80
2018,01,29,16,27,6.80
2018,01,29,16,28,6.80
2018,01,29,16,29,6.70
2018,01,29,16,30,6.70
2018,01,29,16,31,6.70
2018,01,29,16,32,6.70
2018,01,29,16,33,6.60
2018,01,29,16,34,6.60
2018,01,29,16,35,6.60
2018,01,29,16,36,6.60
2018,01,29,16,37,6.50
2018,01,29,16,38,6.50
2018,01,29,16,39,6.50
2018,01,29,16,40,6.40
2018,01,29,16,41,6.40
2018,01,29,16,42,6.40
2018,01,29,16,43,6.30
2018,01,29,16,44,6.30
2018,01,29,16,45,6.30
2018,01,29,16,46,6.20
2018,01,29,16,47,6.20
2018,01,29,16,48,6.10
2018,01,29,16,49,6.10
2018,01,29,16,50,6.10
2018,01,29,16,51,6.00
2018,01,29,16,52,6.00
2018,01,29,16,53,6.00
2018,01,29,16,54,5.90
2018,01,29,16,55,5.90
2018,01,29,16,56,5.90
2018,01,29,16,57,5.90
2018,01,29,16,58,5.90
2018,01,29,16,59,5.90
2018,01,29,17,00,5.90
2018,01,29,17,01,5.80
2018,01,29,17,02,5.80
2018,01,29,17,03,5.80
2018,01,29,17,04,5.80
2018,01,29,17,05,5.80
2018,01,29,17,06,5.80
2018,01,29,17,07,5.80
2018,01,29,17,08,5.80
2018,01,29,17,09,5.80
2018,01,29,17,10,5.80
2018,01,29,17,11,5.80
2018,01,29,17,12,5.80
2018,01,29,17,13,5.80
2018,01,29,17,14,5.70
2018,01,29,17,15,5.70
2018,01,29,17,16,5.70
2018,01,29,17,17,5.70
2018,01,29,17,18,5.70
2018,01,29,17,19,5.70
2018,01,29,17,20,5.70
2018,01,29,17,21,5.70
2018,01,29,17,22,5.70
2018,01,29,17,23,5.70
2018,01,29,17,24,5.70
2018,01,29,17,25,5.70
2018,01,29,17,26,5.70
2018,01,29,17,27,5.70
2018,01,29,17,28,5.70
2018,01,29,17,29,5.70
2018,01,29,17,30,5.70
2018,01,29,17,31,5.70
2018,01,29,17,32,5.60
2018,01,29,17,33,5.60
2018,01,29,17,34,5.60
2018,01,29,17,35,5.60
2018,01,29,17,36,5.60
2018,01,29,17,37,5.60
2018,01,29,17,38,5.60
2018,01,29,17,39,5.50
2018,01,29,17,40,5.50
2018,01,29,17,41,5.50
2018,01,29,17,42,5.50
2018,01,29,17,43,5.50
2018,01,29,17,44,5.40
2018,01,29,17,45,5.40
2018,01,29,17,46,5.40
2018,01,29,17,47,5.30
2018,01,29,17,48,5.30
2018,01,29,17,49,5.30
2018,01,29,17,50,5.30
2018,01,29,17,51,5.30
2018,01,29,17,52,5.30
2018,01,29,17,53,5.30
2018,01,29,17,54,5.30